Regional Weather Roundup
Issued by NWS

Home | Current Version | Previous Version | Graphics & Text | Print | Product List | Glossary On
Versions: 1 2 3 4 5 6 7 8 9 10 11 12 13 14 15 16 17 18 19 20 21 22 23 24 25 26 27 28 29 30 31 32 33 34 35 36 37 38 39 40 41 42 43 44 45 46 47 48 49 50
000
ASUS45 KPSR 221610
RWRAZ

ARIZONA HOURLY REGIONAL WEATHER ROUNDUP
NATIONAL WEATHER SERVICE PHOENIX AZ
900 AM MST TUE AUG 22 2017

NOTE: FAIR INDICATES FEW OR NO CLOUDS BELOW 12,000 FEET WITH NO
SIGNIFICANT WEATHER AND/OR OBSTRUCTIONS TO VISIBILITY.

AZZ001>003-036-221700-
NORTHWEST ARIZONA

CITY           SKY/WX    TMP DP  RH WIND       PRES   REMARKS
BULLHEAD CITY  SUNNY     88  57  35 CALM      29.98S
KINGMAN        MOSUNNY   78  54  43 N6        30.18R
$$

AZZ004>008-015-016-018-221700-
NORTH CENTRAL ARIZONA

CITY           SKY/WX    TMP DP  RH WIND       PRES   REMARKS
GRAND CANYON   SUNNY     70  50  49 E5        30.40R
WILLIAMS       SUNNY     70  52  52 NW7       30.40R
PRESCOTT       SUNNY     73  54  51 VRB3      30.28S
FLAGSTAFF      SUNNY     69  52  54 NE5       30.42R
PAYSON           N/A     79  52  38 SW3       30.29R
PAGE           PTSUNNY   76  54  46 W7        30.25S
$$

AZZ009>014-017-221700-
NORTHEAST ARIZONA

CITY           SKY/WX    TMP DP  RH WIND       PRES   REMARKS
WINSLOW        SUNNY     77  51  40 NW7       30.29R
SAINT JOHNS    SUNNY     75  50  41 CALM      30.32S
WINDOW ROCK    SUNNY     68  52  56 CALM      30.40S
SHOW LOW       SUNNY     72  50  46 MISG      30.38R
$$

AZZ540-542>544-546-548-221700-
GREATER PHOENIX AREA

CITY           SKY/WX    TMP DP  RH WIND       PRES   REMARKS
PHOENIX        MOSUNNY   92  54  27 E9        29.96S
BUCKEYE        SUNNY     88  55  33 SE10      29.98R
GLENDALE       MOSUNNY   91  57  31 N5        29.98S
LUKE AFB       SUNNY     91  57  31 NE3       29.96R
DEER VALLEY    SUNNY     90  56  31 S3        29.99R
SCOTTSDALE     SUNNY     90  56  31 N3        30.01R
MESA-FALCON    MOSUNNY   90  55  31 NE5       30.00R
MESA-GATEWAY   MOSUNNY   88  55  33 SE8       30.00R
CHANDLER       MOSUNNY   88  57  35 CALM      29.98S
$$

AZZ539-553-221700-
SOUTHWEST MARICOPA COUNTY AND PINAL COUNTY

CITY           SKY/WX    TMP DP  RH WIND       PRES   REMARKS
CASA GRANDE    MOSUNNY   88  56  33 S5        30.01R
GILA BEND      FAIR      93  50  23 CALM      29.95S
$$

AZZ503-504-507>509-221700-
SOUTHEAST ARIZONA

CITY           SKY/WX    TMP DP  RH WIND       PRES   REMARKS
TUCSON         SUNNY     86  59  39 S3        30.09S
DAVIS-MONTHAN  SUNNY     88  57  34 CALM      30.08S
RYAN FIELD     SUNNY     88  57  35 CALM      30.08S
NOGALES        SUNNY     81  62  52 CALM      30.18R
SIERRA VISTA   SUNNY     81  52  36 N3        30.25R
DOUGLAS        SUNNY     78  60  53 CALM      30.21R
SAFFORD        SUNNY     85  56  37 E8        30.13R
$$

AZZ532-221700-
SOUTHWEST ARIZONA

CITY           SKY/WX    TMP DP  RH WIND       PRES   REMARKS
YUMA           MOSUNNY   92  53  26 SW8       29.92R
$$

CAZ041-043-047-048-061-525>527-560>570-221700-
SOUTHERN CALIFORNIA

CITY           SKY/WX    TMP DP  RH WIND       PRES   REMARKS
DOWNTOWN L.A.  MOSUNNY   73  63  70 CALM      30.02R
L.A. AIRPORT   MOSUNNY   70  64  81 W7        30.02S
SAN DIEGO      CLOUDY    71  63  75 NW6       30.04S
BURBANK        SUNNY     68  59  73 S6        30.03R
ONTARIO        SUNNY     70  60  70 SW3       30.03S
RIVERSIDE      SUNNY     69  61  75 SW3       30.04R
PALM SPRINGS   SUNNY     95  44  17 N6        29.95S
EL CENTRO NAS  MOSUNNY   89  50  26 VRB5      29.91S
IMPERIAL       MOSUNNY   88  56  33 W6        29.89S
BLYTHE         SUNNY     94  55  26 CALM      29.94R
NEEDLES        SUNNY     92  52  25 NE3       29.99S
$$

NVZ020-UTZ003-221700-
SOUTHERN NEVADA-UTAH

CITY           SKY/WX    TMP DP  RH WIND       PRES   REMARKS
LAS VEGAS      MOSUNNY   85  52  32 N8        30.10R
SALT LAKE CITY PTSUNNY   78  52  40 SE10      30.21S
$$

NMZ009-TXZ055-221700-
NEW MEXICO-WEST TEXAS

CITY           SKY/WX    TMP DP  RH WIND       PRES   REMARKS
ALBUQUERQUE    MOSUNNY   73  54  51 N7        30.33R
EL PASO        MOSUNNY   80  68  66 CALM      30.21R
$$


........................KEY........................
SKY/WX - SKY CONDITION/WEATHER
TMP    - TEMPERATURE IN FAHRENHEIT
DP     - DEW POINT IN FAHRENHEIT
RH     - RELATIVE HUMIDITY IN PERCENT
WIND   - DIRECTION AND SPEED IN MILES PER HOUR (MPH)
VRB    - VARIABLE WIND DIRECTION
PRES   - MEAN SEA LEVEL PRESSURE IN INCHES OF MERCURY
         F - FALLING PRESSURE   R - RISING PRESSURE
         S - STEADY PRESSURE
VSB    - VISIBILITY IN MILES
HX     - HEAT INDEX IN FAHRENHEIT
WCI    - WIND CHILL INDEX IN FAHRENHEIT
TC     - TEMPERATURE IN CELSIUS WHICH IS ALSO KNOWN AS
         TEMPERATURE IN CENTIGRADE
AFB    - AIR FORCE BASE
         LUKE AFB IS LUKE AIR FORCE BASE
         DAVIS-MONTHAN IS DAVIS-MONTHAN AIR FORCE BASE
NAS    - NAVAL AIR STATION
         EL CENTRO NAS IS EL CENTRO NAVAL AIR STATION
N/A    - NOT AVAILABLE




USA.gov is the U.S. government's official web portal to all federal, state and local government web resources and services.